Date String (YYYY-MM-DD hh:mm:ss) UTC,Instrument flags,absolute air pressure of the measurement (hPa),sample flow rate (lpm),inlet stack bypass flow (lpm),air temperature of the measurement (°C),ambient temperature measured by the external sensor (°C),aerosol sample conditioner tube jacket temperature (°C),OPC LED temperature (°C),internal box temperature (°C),relative humidity of the measurement (%),span deviation,mass concentration of particles derived from Lorenz-Mie calculation of OPC scattering (μg/m³),mass concentration of particles derived from Lorenz-Mie calculation of OPC scattering (μg/m³),mass concentration of particles derived from Lorenz-Mie calculation of OPC scattering (μg/m³)
DateTimeUTC,F1_M11,P_M11,Q1_M11,Q2_M11,T1_M11,T2_M11,T3_M11,T4_M11,T5_M11,U1_M11,ZSPAN_M11,X0_M11,X2_M11,X1_M11
2024-02-28 19:00:00,SystemResetWarning,0829.6,5.00,000.00,019.9,019.3,000.0,028.1,021.5,09.2,0000.0,0012.07,0003.25,0001.95
2024-02-28 19:01:00,SystemResetWarning,0829.7,5.00,000.00,019.9,019.3,000.0,028.1,021.5,08.9,0000.0,0012.19,0003.24,0001.95
2024-02-28 19:02:00,SystemResetWarning,0829.6,5.00,000.00,019.9,019.3,000.0,028.1,021.6,09.1,0000.0,0011.88,0003.22,0001.96
2024-02-28 19:03:00,SystemResetWarning,0829.5,5.00,000.00,019.9,019.3,000.0,028.1,021.6,09.2,0000.0,0011.40,0003.20,0001.97
2024-02-28 19:04:00,SystemResetWarning,0829.4,5.00,000.00,019.9,019.3,000.0,028.1,021.6,09.2,0000.0,0011.31,0003.20,0001.96
2024-02-28 19:05:00,SystemResetWarning,0829.4,4.99,000.00,019.9,019.3,000.0,028.1,021.6,09.6,0000.0,0010.38,0003.20,0001.97
2024-02-28 19:06:00,SystemResetWarning,0829.3,5.00,000.00,019.9,019.3,000.0,028.1,021.6,09.5,0000.0,0010.02,0003.17,0001.95
2024-02-28 19:07:00,SystemResetWarning,0829.4,4.99,000.00,019.9,019.4,000.0,028.1,021.6,09.6,0000.0,0010.54,0003.18,0001.93
2024-02-28 19:08:00,SystemResetWarning,0829.4,5.00,000.00,019.9,019.4,000.0,028.1,021.6,09.5,0000.0,0010.14,0003.15,0001.92
2024-02-28 19:09:00,SystemResetWarning,0829.4,5.01,000.00,019.9,019.4,000.0,028.2,021.6,09.4,0000.0,0009.07,0003.06,0001.90
2024-02-28 19:10:00,SystemResetWarning,0829.4,5.01,000.00,019.9,019.4,000.0,028.2,021.6,09.6,0000.0,0008.92,0002.95,0001.90
2024-02-28 19:11:00,SystemResetWarning,0829.4,5.00,000.00,020.0,019.4,000.0,028.2,021.6,09.5,0000.0,0008.57,0002.96,0001.91
2024-02-28 19:12:00,SystemResetWarning,0829.3,5.00,000.00,020.0,019.4,000.0,028.2,021.7,09.3,0000.0,0008.53,0003.02,0001.92
2024-02-28 19:13:00,SystemResetWarning,0829.3,5.01,000.00,020.0,019.4,000.0,028.2,021.6,09.1,0000.0,0008.58,0003.04,0001.91
2024-02-28 19:14:00,SystemResetWarning,0829.3,5.00,000.00,020.0,019.4,000.0,028.2,021.6,09.4,0000.0,0008.57,0003.00,0001.89
2024-02-28 19:15:00,SystemResetWarning,0829.4,4.99,000.00,020.0,019.4,000.0,028.2,021.7,09.3,0000.0,0008.77,0003.00,0001.89
2024-02-28 19:16:00,SystemResetWarning,0829.4,4.99,000.00,020.0,019.4,000.0,028.2,021.7,09.3,0000.0,0008.85,0002.99,0001.89
2024-02-28 19:17:00,SystemResetWarning,0829.3,5.00,000.00,020.0,019.4,000.0,028.2,021.7,09.6,0000.0,0008.75,0002.97,0001.90
2024-02-28 19:18:00,SystemResetWarning,0829.3,5.00,000.00,020.0,019.4,000.0,028.2,021.7,09.2,0000.0,0007.90,0002.94,0001.90
2024-02-28 19:19:00,SystemResetWarning,0829.4,5.00,000.00,020.0,019.5,000.0,028.2,021.7,09.0,0000.0,0008.52,0002.99,0001.89
2024-02-28 19:20:00,SystemResetWarning,0829.4,5.01,000.00,020.0,019.5,000.0,028.2,021.7,09.3,0000.0,0009.58,0003.09,0001.90
2024-02-28 19:21:00,SystemResetWarning,0829.3,5.00,000.00,020.0,019.5,000.0,028.3,021.7,09.4,0000.0,0009.35,0003.10,0001.90
2024-02-28 19:22:00,SystemResetWarning,0829.2,5.01,000.00,020.0,019.5,000.0,028.3,021.7,09.2,0000.0,0009.05,0003.09,0001.90
2024-02-28 19:23:00,SystemResetWarning,0829.2,5.00,000.00,020.0,019.5,000.0,028.3,021.7,09.1,0000.0,0008.89,0003.01,0001.88
2024-02-28 19:24:00,SystemResetWarning,0829.1,4.99,000.00,020.0,019.5,000.0,028.3,021.8,09.3,0000.0,0009.04,0003.02,0001.89
2024-02-28 19:25:00,SystemResetWarning,0829.1,4.99,000.00,020.0,019.5,000.0,028.3,021.8,09.1,0000.0,0009.97,0003.11,0001.89
2024-02-28 19:26:00,SystemResetWarning,0829.1,5.00,000.00,020.1,019.5,000.0,028.3,021.8,09.0,0000.0,0009.97,0003.13,0001.89
2024-02-28 19:27:00,SystemResetWarning,0829.1,5.00,000.00,020.1,019.5,000.0,028.3,021.8,09.1,0000.0,0010.04,0003.12,0001.87
2024-02-28 19:28:00,SystemResetWarning,0829.1,5.01,000.00,020.1,019.5,000.0,028.3,021.8,08.8,0000.0,0010.28,0003.15,0001.87
2024-02-28 19:29:00,SystemResetWarning,0829.1,5.00,000.00,020.1,019.6,000.0,028.3,021.8,08.9,0000.0,0010.46,0003.17,0001.87
2024-02-28 19:30:00,SystemResetWarning,0829.0,4.99,000.00,020.1,019.6,000.0,028.3,021.8,09.1,0000.0,0010.29,0003.15,0001.86
2024-02-28 19:31:00,SystemResetWarning,0829.1,4.99,000.00,020.1,019.6,000.0,028.3,021.8,09.3,0000.0,0009.54,0003.12,0001.85
2024-02-28 19:32:00,SystemResetWarning,0829.1,5.00,000.00,020.1,019.6,000.0,028.3,021.8,09.1,0000.0,0009.52,0003.17,0001.86
2024-02-28 19:33:00,SystemResetWarning,0829.1,5.00,000.00,020.1,019.6,000.0,028.4,021.8,09.2,0000.0,0009.89,0003.22,0001.84
2024-02-28 19:34:00,SystemResetWarning,0829.0,5.00,000.00,020.1,019.6,000.0,028.4,021.8,09.1,0000.0,0010.65,0003.29,0001.85
2024-02-28 19:35:00,SystemResetWarning,0829.0,5.00,000.00,020.1,019.6,000.0,028.4,021.8,09.4,0000.0,0010.94,0003.33,0001.86
2024-02-28 19:36:00,SystemResetWarning,0829.0,5.00,000.00,020.1,019.6,000.0,028.4,021.8,09.4,0000.0,0010.09,0003.32,0001.87
2024-02-28 19:37:00,SystemResetWarning,0829.0,4.99,000.00,020.2,019.6,000.0,028.4,021.8,09.2,0000.0,0010.31,0003.31,0001.88
2024-02-28 19:38:00,SystemResetWarning,0829.0,4.99,000.00,020.2,019.6,000.0,028.4,021.8,09.2,0000.0,0010.25,0003.35,0001.89
2024-02-28 19:39:00,SystemResetWarning,0829.0,5.00,000.00,020.2,019.6,000.0,028.4,021.8,09.2,0000.0,0010.38,0003.36,0001.93
2024-02-28 19:40:00,SystemResetWarning,0828.9,5.00,000.00,020.2,019.6,000.0,028.4,021.8,09.3,0000.0,0010.77,0003.33,0001.92
2024-02-28 19:41:00,SystemResetWarning,0828.9,5.00,000.00,020.2,019.6,000.0,028.4,021.9,09.5,0000.0,0010.36,0003.32,0001.92
2024-02-28 19:42:00,SystemResetWarning,0829.0,5.00,000.00,020.2,019.6,000.0,028.4,021.9,09.8,0000.0,0010.45,0003.36,0001.93
2024-02-28 19:43:00,SystemResetWarning,0829.0,5.00,000.00,020.2,019.7,000.0,028.4,021.9,09.5,0000.0,0010.60,0003.34,0001.94
2024-02-28 19:44:00,SystemResetWarning,0828.9,5.00,000.00,020.3,019.7,000.0,028.4,021.9,09.3,0000.0,0011.09,0003.32,0001.96
2024-02-28 19:45:00,SystemResetWarning,0828.9,5.00,000.00,020.3,019.7,000.0,028.4,022.0,09.3,0000.0,0010.56,0003.31,0001.98
2024-02-28 19:46:00,SystemResetWarning,0828.9,5.00,000.00,020.3,019.7,000.0,028.5,021.9,09.2,0000.0,0010.80,0003.30,0001.98
2024-02-28 19:47:00,SystemResetWarning,0829.0,5.01,000.00,020.3,019.7,000.0,028.5,022.0,09.1,0000.0,0011.95,0003.29,0001.97
2024-02-28 19:48:00,SystemResetWarning,0828.9,5.01,000.00,020.3,019.7,000.0,028.5,022.0,09.2,0000.0,0013.07,0003.32,0001.96
2024-02-28 19:49:00,SystemResetWarning,0828.9,5.00,000.00,020.3,019.8,000.0,028.5,022.0,09.4,0000.0,0014.11,0003.33,0001.95
2024-02-28 19:50:00,SystemResetWarning,0828.9,5.00,000.00,020.3,019.8,000.0,028.5,022.0,08.9,0000.0,0014.48,0003.34,0001.94
2024-02-28 19:51:00,SystemResetWarning,0828.8,5.00,000.00,020.3,019.8,000.0,028.5,022.0,09.1,0000.0,0014.01,0003.39,0001.95
2024-02-28 19:52:00,SystemResetWarning,0828.8,4.99,000.00,020.3,019.8,000.0,028.5,022.0,09.2,0000.0,0014.04,0003.42,0001.96
2024-02-28 19:53:00,SystemResetWarning,0828.7,4.99,000.00,020.3,019.8,000.0,028.5,022.0,09.1,0000.0,0013.90,0003.41,0001.97
2024-02-28 19:54:00,SystemResetWarning,0828.7,5.00,000.00,020.3,019.8,000.0,028.5,022.1,09.1,0000.0,0013.73,0003.38,0001.96
2024-02-28 19:55:00,SystemResetWarning,0828.7,5.00,000.00,020.4,019.8,000.0,028.6,022.1,09.0,0000.0,0013.00,0003.36,0001.94
2024-02-28 19:56:00,SystemResetWarning,0828.7,5.01,000.00,020.4,019.8,000.0,028.6,022.0,08.9,0000.0,0012.79,0003.35,0001.93
2024-02-28 19:57:00,SystemResetWarning,0828.6,5.00,000.00,020.4,019.8,000.0,028.6,022.1,08.9,0000.0,0012.52,0003.36,0001.92
2024-02-28 19:58:00,SystemResetWarning,0828.8,5.00,000.00,020.4,019.9,000.0,028.6,022.1,08.7,0000.0,0011.75,0003.38,0001.93
2024-02-28 19:59:00,SystemResetWarning,0828.8,5.00,000.00,020.4,019.9,000.0,028.6,022.1,08.5,0000.0,0011.14,0003.38,0001.94
